Location: Unspecified
(0.0000°N, 0.0000°E)
Time: 03:14:48
(UTC+00:00)

Vanguard 3 - Pass Details

Date: 12 December 2017
Orbit: 508 x 3264 km, 33.3° (Epoch: 21 June)

Event Time Altitude Azimuth Distance (km) Brightness Sun altitude
Rises 22:42:59 0° 276° (W) 5,009 11.4 -61.1°
Reaches altitude 10° 22:46:12 10° 267° (W) 4,368 11.0 -61.6°
Maximum altitude 22:57:48 37° 205° (SSW) 3,656 10.4 -63.1°
Drops below altitude 10° 23:14:29 10° 144° (SE) 6,162 11.7 -64.9°
Sets 23:20:18 0° 136° (SE) 7,234 12.1 -65.4°
